{"data":{"norad_id":82524,"epoch":"2026-05-23T23:51:17.902080Z","epoch_age_seconds":162281,"freshness":"FRESH","line1":"1 82524U          26143.99395720  .00002543  00000+0  79210-3 0  9996","line2":"2 82524  73.2806 230.1020 0131940 351.2744 187.2299 14.36653465600323","mean_motion":14.36653465,"eccentricity":0.013194,"inclination_deg":73.2806,"raan_deg":230.102,"arg_perigee_deg":351.2744,"mean_anomaly_deg":187.2299,"bstar":0.0007921,"rev_number":60032,"period_min":100.2329396115,"perigee_km":675.2699214408,"apogee_km":863.88379472793,"semimajor_km":7147.7138580844,"source":"CELESTRAK","updated_at":"2026-05-25T13:38:11.190911Z"}}